Tracking 29892 objects as of 21-Nov-2024
HD Live streaming from Space Station
objects crossing your sky now

BREEZE-M DEB

Track BREEZE-M DEB now!


NORAD ID: 43414
Int'l Code: 2014-007D
Perigee: 8,201.9 km
Apogee: 34,243.2 km
Inclination: 13.9 °
Period: 760.3 minutes
Semi major axis: 27593 km
RCS: Unknown
Launch date: February 14, 2014
Source: Commonwealth of Independent States (former USSR) (CIS)
Launch site: TYURATAM MISSILE AND SPACE COMPLEX (TTMTR)

Note: This is SATELLITE DEBRIS
Your satellite tracking list
Your tracking list is empty




NASA's NSSDC Master Catalog

Two Line Element Set (TLE):
1 43414U 14007D   24324.78305078 -.00000097  00000-0  00000-0 0  9998
2 43414  13.9329  81.3988 4718725  25.2898 351.6860  1.89404924 69870
Source of the keplerian elements: AFSPC